This is the latest recevied weather packets stored in our database for station/object YM7KGL-1. If no packets are shown the sender has not sent any weather packets the latest 10 day(s).
| Time | Temp. | Humidity | Pressure | Rain* | Wind** | Luminosity | Snow |
|---|---|---|---|---|---|---|---|
| 1778013494 | 14.44° C | 56% | 1014.2 hPa | - | - | - | - |
| 1778011782 | 14.44° C | 56% | 1014.3 hPa | - | - | - | - |
| 1778009981 | 14.44° C | 56% | 1014.3 hPa | - | - | - | - |
| 1778009453 | 15° C | 56% | 1014.4 hPa | - | - | - | - |
| 1778008553 | 14.44° C | 56% | 1014.1 hPa | - | - | - | - |
| 1778006018 | 15° C | 56% | 1014.1 hPa | - | - | - | - |
| 1778005118 | 15° C | 56% | 1014.3 hPa | - | - | - | - |
| 1778004217 | 15° C | 56% | 1014.3 hPa | - | - | - | - |
| 1778003317 | 15° C | 56% | 1014.1 hPa | - | - | - | - |
| 1778002563 | 15° C | 55% | 1014 hPa | - | - | - | - |
| 1778001662 | 15° C | 55% | 1013.8 hPa | - | - | - | - |
| 1778001479 | 15.56° C | 55% | 1013.7 hPa | - | - | - | - |
| 1778000762 | 15.56° C | 55% | 1013.7 hPa | - | - | - | - |
| 1777999307 | 15.56° C | 56% | 1013.6 hPa | - | - | - | - |
| 1777995019 | 16.11° C | 55% | 1013.2 hPa | - | - | - | - |
| 1777994119 | 16.67° C | 55% | 1013.1 hPa | - | - | - | - |
| 1777992503 | 16.67° C | 55% | 1013 hPa | - | - | - | - |
| 1777991603 | 16.11° C | 54% | 1012.9 hPa | - | - | - | - |
| 1777991183 | 16.11° C | 55% | 1012.9 hPa | - | - | - | - |
| 1777990703 | 16.11° C | 55% | 1013 hPa | - | - | - | - |
| 1777989803 | 16.11° C | 55% | 1012.9 hPa | - | - | - | - |
| 1777988299 | 16.11° C | 55% | 1012.7 hPa | - | - | - | - |
| 1777988083 | 16.11° C | 55% | 1012.9 hPa | - | - | - | - |
| 1777987183 | 16.11° C | 55% | 1012.9 hPa | - | - | - | - |
| 1777984730 | 16.67° C | 55% | 1012.8 hPa | - | - | - | - |
* Rain since midnight (hover to see other rain measurements)
** Current wind speed in m/s (hover to see current wind gust speed)